TimeCDT,TemperatureF,Dew PointF,Humidity,Sea Level PressureIn,VisibilityMPH,Wind Direction,Wind SpeedMPH,Gust SpeedMPH,PrecipitationIn,Events,Conditions,WindDirDegrees,DateUTC
12:53 AM,61.0,59.0,93,29.83,10.0,Calm,Calm,-,N/A,,Clear,0,2013-09-23 05:53:00
1:53 AM,61.0,57.9,90,29.83,10.0,Calm,Calm,-,N/A,,Clear,0,2013-09-23 06:53:00
2:53 AM,61.0,57.9,90,29.83,10.0,Calm,Calm,-,N/A,,Clear,0,2013-09-23 07:53:00
3:53 AM,61.0,57.9,90,29.84,10.0,Calm,Calm,-,N/A,,Clear,0,2013-09-23 08:53:00
4:53 AM,60.1,57.9,93,29.85,9.0,Calm,Calm,-,N/A,,Clear,0,2013-09-23 09:53:00
5:53 AM,61.0,59.0,93,29.86,10.0,Calm,Calm,-,N/A,,Scattered Clouds,0,2013-09-23 10:53:00
6:53 AM,61.0,57.9,90,29.86,9.0,Calm,Calm,-,N/A,,Clear,0,2013-09-23 11:53:00
7:53 AM,64.9,59.0,81,29.87,10.0,Calm,Calm,-,N/A,,Clear,0,2013-09-23 12:53:00
8:53 AM,69.1,62.1,78,29.88,10.0,SE,4.6,-,N/A,,Clear,130,2013-09-23 13:53:00
9:53 AM,75.0,66.0,73,29.88,10.0,ESE,5.8,-,N/A,,Clear,120,2013-09-23 14:53:00
10:53 AM,81.0,68.0,65,29.88,10.0,Variable,3.5,-,N/A,,Clear,0,2013-09-23 15:53:00
11:53 AM,84.0,70.0,63,29.87,10.0,SE,3.5,-,N/A,,Clear,130,2013-09-23 16:53:00
12:53 PM,86.0,70.0,59,29.86,10.0,Calm,Calm,-,N/A,,Clear,0,2013-09-23 17:53:00
1:53 PM,87.1,72.0,61,29.84,10.0,Variable,3.5,-,N/A,,Mostly Cloudy,0,2013-09-23 18:53:00
2:53 PM,87.1,70.0,57,29.82,10.0,Calm,Calm,-,N/A,,Scattered Clouds,0,2013-09-23 19:53:00
3:53 PM,88.0,71.1,57,29.81,10.0,Calm,Calm,-,N/A,,Partly Cloudy,0,2013-09-23 20:53:00
4:53 PM,88.0,70.0,55,29.81,10.0,ENE,6.9,-,N/A,,Clear,70,2013-09-23 21:53:00
5:53 PM,87.1,71.1,59,29.82,10.0,ENE,5.8,-,N/A,,Partly Cloudy,70,2013-09-23 22:53:00
6:53 PM,82.0,73.0,74,29.83,10.0,Calm,Calm,-,0.00,Rain,Light Rain,0,2013-09-23 23:53:00
7:53 PM,80.1,73.9,81,29.85,10.0,East,4.6,-,N/A,,Overcast,80,2013-09-24 00:53:00
8:53 PM,78.1,73.9,87,29.87,10.0,SE,5.8,-,N/A,,Mostly Cloudy,140,2013-09-24 01:53:00
9:53 PM,78.1,73.9,87,29.88,10.0,SE,3.5,-,N/A,,Overcast,130,2013-09-24 02:53:00
10:53 PM,77.0,73.0,88,29.88,10.0,ESE,5.8,-,N/A,,Mostly Cloudy,120,2013-09-24 03:53:00
11:53 PM,75.9,73.0,91,29.88,10.0,ESE,3.5,-,N/A,,Partly Cloudy,120,2013-09-24 04:53:00